Home   Weather   Rovaniemi   Past weeks

Flag for Finland Past Weather in Rovaniemi, Finland — Yesterday and Last 2 Weeks

Now
12 °F

Clear.


Feels Like: -3 °F
Forecast: 6 / 18 °F
Wind: 14 mph from North

Location: Rovaniemi Airport

Current Time: Dec 3, 2016 at 2:33:51 am

Latest Report: Dec 3, 2016 at 2:20 am


Visibility: 10 mi

Pressure: 29.83 "Hg

Humidity: 92%

Dew Point: 10 °F

Location of RovaniemiLocation

Past Weather in Rovaniemi — Graph

°F

Rovaniemi Temperature Yesterday

Maximum temperature yesterday: 27 °F (at 3:50 am)
Minimum temperature yesterday: 14 °F (at 5:20 pm)
Average temperature yesterday: 21 °F

High & Low Weather Summary for the Past Weeks

 TemperatureHumidityPressure
High37 °F (Nov 22, 1:20 am)100% (Nov 18, 1:20 am)29.95 "Hg (Nov 18, 1:20 am)
Low5 °F (Nov 29, 2:20 am)85% (Nov 25, 9:50 am)29.09 "Hg (Nov 30, 12:20 pm)
Average25 °F95%29.58 "Hg
* Reported Nov 18 1:20 am — Dec 3 1:20 am, Rovaniemi, Weather by CustomWeather, © 2016

Note: Actual official high and low records may vary slightly from our data, if they occured in-between our weather recording intervals... More about our weather records

Advertising

Rovaniemi Weather History for the Previous 24 Hours

Scroll right to see more
 ConditionsComfort  
Time TempWeatherWind HumidityBarometerVisibility
1:20 am
Sat, Dec 3
14 °FClear.13 mph92%29.83 "Hg10 mi
12:50 am14 °FClear.14 mph92%29.83 "Hg10 mi
12:20 am16 °FClear.14 mph93%29.80 "Hg10 mi
11:50 pm
Fri, Dec 2
16 °FClear.13 mph93%29.80 "Hg10 mi
11:20 pm16 °FClear.12 mph93%29.80 "Hg10 mi
10:50 pm18 °FClear.13 mph93%29.80 "Hg10 mi
10:20 pm18 °FClear.13 mph86%29.80 "Hg10 mi
9:50 pm16 °FClear.13 mph93%29.77 "Hg10 mi
9:20 pm16 °FClear.13 mph93%29.77 "Hg10 mi
8:50 pm16 °FSnow flurries. Passing clouds.13 mph86%29.77 "HgN/A
8:20 pm14 °FPassing clouds.14 mph92%29.74 "HgN/A
7:50 pm14 °FLight snow. Partly cloudy.15 mph92%29.74 "Hg4 mi
7:20 pm14 °FLight snow. Passing clouds.15 mph92%29.74 "HgN/A
6:50 pm14 °FLight snow. Partly cloudy.15 mph92%29.74 "Hg6 mi
6:20 pm14 °FLight snow. Passing clouds.14 mph92%29.74 "HgN/A
5:50 pm16 °FClear.15 mph86%29.71 "Hg10 mi
5:20 pm14 °FClear.15 mph92%29.71 "Hg10 mi
4:50 pm16 °FClear.16 mph86%29.71 "Hg10 mi
4:20 pm16 °FClear.16 mph93%29.71 "Hg10 mi
3:50 pm16 °FClear.17 mph93%29.71 "Hg10 mi
3:20 pm18 °FClear.15 mph93%29.71 "Hg10 mi
2:50 pm19 °FClear.14 mph93%29.68 "Hg10 mi
2:20 pm19 °FClear.13 mph93%29.68 "Hg10 mi
1:50 pm21 °FClear.14 mph93%29.68 "Hg10 mi
1:20 pm21 °FSunny.14 mph100%29.68 "Hg10 mi
12:50 pm23 °FBroken clouds.15 mph93%29.65 "HgN/A
12:20 pm23 °FScattered clouds.15 mph100%29.65 "HgN/A
11:50 am25 °FPartly sunny.16 mph93%29.65 "HgN/A
11:20 am25 °FScattered clouds.16 mph93%29.62 "HgN/A
10:50 am25 °FBroken clouds.17 mph93%29.62 "HgN/A
10:20 am25 °FBroken clouds.16 mph100%29.59 "Hg4 mi
9:50 am25 °FIce fog.17 mph100%29.59 "Hg3 mi
9:20 am25 °FLight snow. Passing clouds.15 mph100%29.56 "Hg2 mi
8:50 am27 °FLight snow. Partly cloudy.17 mph93%29.53 "Hg1 mi
8:20 am27 °FLight snow. Passing clouds.15 mph100%29.53 "Hg1 mi
7:50 am27 °FLight snow. Passing clouds.14 mph100%29.50 "Hg2 mi
7:20 am27 °FLight snow. Passing clouds.12 mph93%29.50 "Hg2 mi
6:50 am27 °FSnow. Ice fog.10 mph93%29.47 "Hg1 mi
6:20 am27 °FLight snow. Overcast.10 mph93%29.47 "Hg2 mi
5:50 am27 °FLight snow. Passing clouds.12 mph93%29.47 "Hg2 mi
5:20 am27 °FLight snow. Mostly cloudy.12 mph93%29.45 "Hg2 mi
4:50 am27 °FLight snow. Passing clouds.10 mph93%29.45 "HgN/A
4:20 am27 °FLight snow. Overcast.12 mph93%29.45 "HgN/A
3:50 am27 °FLight snow. Passing clouds.12 mph93%29.45 "Hg2 mi
3:20 am25 °FLight snow. Overcast.8 mph100%29.42 "Hg2 mi
2:50 am25 °FLight snow. Passing clouds.7 mph93%29.42 "Hg1 mi
2:20 am23 °FLight snow. Mostly cloudy.7 mph100%29.42 "HgN/A
Weather by CustomWeather, © 2016

See weather overviewHow to use our weather pages